Date String (YYYY-MM-DD hh:mm:ss) UTC,Instrument flags,absolute air pressure of the measurement (hPa),sample flow rate (lpm),inlet stack bypass flow (lpm),air temperature of the measurement (°C),ambient temperature measured by the external sensor (°C),aerosol sample conditioner tube jacket temperature (°C),OPC LED temperature (°C),internal box temperature (°C),relative humidity of the measurement (%),span deviation,mass concentration of particles derived from Lorenz-Mie calculation of OPC scattering (μg/m³),mass concentration of particles derived from Lorenz-Mie calculation of OPC scattering (μg/m³),mass concentration of particles derived from Lorenz-Mie calculation of OPC scattering (μg/m³)
DateTimeUTC,F1_M11,P_M11,Q1_M11,Q2_M11,T1_M11,T2_M11,T3_M11,T4_M11,T5_M11,U1_M11,ZSPAN_M11,X2_M11,X0_M11,X1_M11
2023-06-23 11:00:00,SystemResetWarning,0830.0,5.00,000.00,030.0,028.2,000.0,038.6,031.4,32.8,0000.7,0005.30,0010.27,0004.74
2023-06-23 11:01:00,SystemResetWarning,0830.0,5.00,000.00,030.0,028.2,000.0,038.6,031.5,32.4,0000.0,0005.34,0010.44,0004.74
2023-06-23 11:02:00,SystemResetWarning,0830.0,5.00,000.00,030.0,028.3,000.0,038.6,031.5,32.3,0000.0,0005.32,0010.38,0004.73
2023-06-23 11:03:00,SystemResetWarning,0830.0,5.00,000.00,030.1,028.4,000.0,038.6,031.5,32.2,0000.0,0005.34,0010.59,0004.72
2023-06-23 11:04:00,SystemResetWarning,0830.0,5.00,000.00,030.1,028.4,000.0,038.6,031.5,31.9,0000.0,0005.40,0011.67,0004.72
2023-06-23 11:05:00,SystemResetWarning,0830.0,5.01,000.00,030.1,028.5,000.0,038.6,031.5,31.7,0000.0,0005.39,0011.69,0004.70
2023-06-23 11:06:00,SystemResetWarning,0830.0,5.01,000.00,030.1,028.5,000.0,038.6,031.6,31.7,0000.0,0005.39,0011.23,0004.69
2023-06-23 11:07:00,SystemResetWarning,0830.0,5.01,000.00,030.1,028.6,000.0,038.7,031.6,31.5,0000.0,0005.46,0011.23,0004.68
2023-06-23 11:08:00,SystemResetWarning,0830.0,5.00,000.00,030.1,028.6,000.0,038.7,031.6,31.5,0000.0,0005.47,0011.56,0004.68
2023-06-23 11:09:00,SystemResetWarning,0830.0,5.00,000.00,030.2,028.6,000.0,038.7,031.7,31.3,0000.0,0005.49,0011.97,0004.67
2023-06-23 11:10:00,SystemResetWarning,0830.0,4.99,000.00,030.2,028.7,000.0,038.7,031.7,31.3,0000.0,0005.53,0012.27,0004.66
2023-06-23 11:11:00,SystemResetWarning,0830.0,5.00,000.00,030.2,028.7,000.0,038.7,031.7,31.1,0000.0,0005.48,0012.64,0004.65
2023-06-23 11:12:00,SystemResetWarning,0830.0,4.99,000.00,030.2,028.7,000.0,038.7,031.7,31.0,0000.0,0005.44,0012.52,0004.64
2023-06-23 11:13:00,SystemResetWarning,0830.0,4.99,000.00,030.2,028.7,000.0,038.7,031.7,30.9,0000.0,0005.44,0012.61,0004.63
2023-06-23 11:14:00,SystemResetWarning,0830.0,5.01,000.00,030.2,028.8,000.0,038.7,031.7,30.8,0000.0,0005.42,0012.39,0004.62
2023-06-23 11:15:00,SystemResetWarning,0830.0,5.01,000.00,030.3,028.8,000.0,038.8,031.8,30.8,0000.0,0005.38,0011.24,0004.62
2023-06-23 11:16:00,SystemResetWarning,0830.0,5.00,000.00,030.3,028.8,000.0,038.8,031.7,30.8,0000.0,0005.38,0011.61,0004.62
2023-06-23 11:17:00,SystemResetWarning,0830.0,4.99,000.00,030.3,028.8,000.0,038.8,031.8,30.6,0000.0,0005.38,0012.73,0004.62
2023-06-23 11:18:00,SystemResetWarning,0830.0,5.00,000.00,030.3,028.8,000.0,038.8,031.8,30.6,0000.0,0005.36,0012.78,0004.62
2023-06-23 11:19:00,SystemResetWarning,0830.0,5.00,000.00,030.3,028.9,000.0,038.8,031.8,30.5,0000.0,0005.35,0012.77,0004.61
2023-06-23 11:20:00,SystemResetWarning,0830.0,5.00,000.00,030.4,028.9,000.0,038.8,031.8,30.3,0000.0,0005.36,0012.71,0004.60
2023-06-23 11:21:00,SystemResetWarning,0830.0,5.00,000.00,030.4,028.9,000.0,038.9,031.9,30.3,0000.0,0005.32,0012.57,0004.60
2023-06-23 11:22:00,SystemResetWarning,0830.1,5.00,000.00,030.4,028.9,000.0,038.9,031.9,30.3,0000.0,0005.33,0011.86,0004.60
2023-06-23 11:23:00,SystemResetWarning,0830.0,5.01,000.00,030.4,028.9,000.0,038.9,031.9,30.2,0000.0,0005.36,0011.92,0004.62
2023-06-23 11:24:00,SystemResetWarning,0830.0,5.00,000.00,030.4,028.9,000.0,038.9,031.9,30.2,0000.0,0005.35,0011.78,0004.61
2023-06-23 11:25:00,SystemResetWarning,0830.0,5.01,000.00,030.4,028.9,000.0,038.9,031.9,30.4,0000.0,0005.37,0012.13,0004.61
2023-06-23 11:26:00,SystemResetWarning,0830.0,5.00,000.00,030.5,028.9,000.0,038.9,031.9,30.4,0000.0,0005.37,0012.28,0004.60
2023-06-23 11:27:00,SystemResetWarning,0830.0,4.99,000.00,030.5,028.9,000.0,038.9,031.9,30.4,0000.0,0005.39,0012.32,0004.61
2023-06-23 11:28:00,SystemResetWarning,0830.0,4.99,000.00,030.5,028.9,000.0,039.0,031.9,30.4,0000.0,0005.40,0011.62,0004.61
2023-06-23 11:29:00,SystemResetWarning,0830.0,4.99,000.00,030.5,027.9,000.0,038.9,032.0,30.4,0000.0,0005.37,0011.42,0004.60
2023-06-23 11:30:00,SystemResetWarning,0830.0,5.00,000.00,030.5,025.7,000.0,038.8,031.9,30.4,0000.0,0005.36,0011.67,0004.61
2023-06-23 11:31:00,SystemResetWarning,0830.0,5.00,000.00,030.4,025.0,000.0,038.8,031.7,30.3,0000.0,0005.35,0011.73,0004.61
2023-06-23 11:32:00,SystemResetWarning,0830.0,5.01,000.00,030.2,025.2,000.0,038.8,031.3,30.6,0000.0,0005.39,0012.19,0004.62
2023-06-23 11:33:00,SystemResetWarning,0830.0,5.01,000.00,030.2,025.7,000.0,038.8,031.3,30.9,0000.0,0005.40,0012.31,0004.62
2023-06-23 11:34:00,SystemResetWarning,0830.0,5.00,000.00,030.1,026.2,000.0,038.8,031.3,31.0,0000.0,0005.35,0012.18,0004.59
2023-06-23 11:35:00,SystemResetWarning,0830.0,5.00,000.00,030.1,026.6,000.0,038.8,031.3,31.0,0000.0,0005.32,0012.12,0004.59
2023-06-23 11:36:00,SystemResetWarning,0830.0,5.00,000.00,030.1,026.9,000.0,038.7,031.3,30.9,0000.0,0005.33,0011.88,0004.60
2023-06-23 11:37:00,SystemResetWarning,0830.0,5.00,000.00,030.1,027.2,000.0,038.7,031.4,30.8,0000.0,0005.33,0011.84,0004.61
2023-06-23 11:38:00,SystemResetWarning,0830.0,4.99,000.00,030.0,027.5,000.0,038.7,031.4,30.7,0000.0,0005.35,0011.26,0004.60
2023-06-23 11:39:00,SystemResetWarning,0830.1,5.00,000.00,030.0,027.7,000.0,038.7,031.4,30.7,0002.1,0005.33,0011.00,0004.59
2023-06-23 11:40:00,SystemResetWarning,0830.1,5.00,000.00,030.0,027.9,000.0,038.7,031.4,30.6,0001.8,0005.35,0011.79,0004.59
2023-06-23 11:41:00,SystemResetWarning,0830.1,5.00,000.00,030.1,028.0,000.0,038.7,031.4,30.5,0002.2,0005.35,0011.59,0004.59
2023-06-23 11:42:00,SystemResetWarning,0830.1,5.01,000.00,030.1,028.1,000.0,038.7,031.5,30.6,0002.1,0005.34,0011.11,0004.58
2023-06-23 11:43:00,SystemResetWarning,0830.1,5.01,000.00,030.1,028.2,000.0,038.7,031.5,30.5,0000.4,0005.33,0010.73,0004.58
2023-06-23 11:44:00,SystemResetWarning,0830.1,4.99,000.00,030.1,028.3,000.0,038.7,031.5,30.5,0000.0,0005.32,0010.72,0004.58
2023-06-23 11:45:00,SystemResetWarning,0830.1,5.00,000.00,030.1,028.4,000.0,038.7,031.5,30.7,0000.0,0005.31,0010.96,0004.58
2023-06-23 11:46:00,SystemResetWarning,0830.1,5.00,000.00,030.1,028.4,000.0,038.7,031.5,30.9,0000.0,0005.35,0011.65,0004.57
2023-06-23 11:47:00,SystemResetWarning,0830.1,5.00,000.00,030.1,028.5,000.0,038.7,031.6,31.0,0000.0,0005.36,0011.72,0004.57
2023-06-23 11:48:00,SystemResetWarning,0830.1,5.00,000.00,030.1,028.5,000.0,038.7,031.6,31.2,0000.0,0005.35,0011.64,0004.57
2023-06-23 11:49:00,SystemResetWarning,0830.1,5.01,000.00,030.2,028.6,000.0,038.7,031.6,31.3,0000.0,0005.29,0011.49,0004.57
2023-06-23 11:50:00,SystemResetWarning,0830.1,5.01,000.00,030.2,028.6,000.0,038.7,031.7,31.3,0000.0,0005.26,0011.24,0004.58
2023-06-23 11:51:00,SystemResetWarning,0830.1,5.00,000.00,030.2,028.6,000.0,038.7,031.7,31.3,0000.0,0005.23,0010.35,0004.58
2023-06-23 11:52:00,SystemResetWarning,0830.1,4.98,000.00,030.2,028.7,000.0,038.7,031.7,31.3,0000.0,0005.22,0010.10,0004.58
2023-06-23 11:53:00,SystemResetWarning,0830.0,5.00,000.00,030.2,028.7,000.0,038.8,031.7,31.4,0000.0,0005.22,0010.85,0004.59
2023-06-23 11:54:00,SystemResetWarning,0830.0,5.00,000.00,030.2,028.7,000.0,038.8,031.7,31.2,0001.5,0005.20,0010.91,0004.59
2023-06-23 11:55:00,SystemResetWarning,0830.0,5.00,000.00,030.3,028.7,000.0,038.8,031.7,30.8,0001.3,0005.20,0010.81,0004.59
2023-06-23 11:56:00,SystemResetWarning,0830.0,5.01,000.00,030.3,028.7,000.0,038.8,031.8,30.8,0001.0,0005.25,0011.10,0004.62
2023-06-23 11:57:00,SystemResetWarning,0830.0,5.00,000.00,030.3,028.8,000.0,038.8,031.7,30.8,0001.0,0005.24,0010.78,0004.63
2023-06-23 11:58:00,SystemResetWarning,0830.0,4.99,000.00,030.3,028.8,000.0,038.8,031.8,31.0,0001.0,0005.27,0010.84,0004.65
2023-06-23 11:59:00,SystemResetWarning,0830.1,4.99,000.00,030.3,028.8,000.0,038.8,031.8,31.1,0001.0,0005.29,0010.93,0004.64
